GEFSMW_prec_meanprecacc_024.txt.gz
Total_Precipitation_Accumulation
0.01 0.03 0.10 0.22 0.27 0.21 0.17 0.14 0.10 0.12 0.11 0.09 0.06 0.05 0.04 0.03 0.03 0.03 0.03 0.04 0.04 0.04 0.05 0.08 0.09 0.08 0.08 0.07 0.07 0.06 0.04 0.03 0.02 0.02 0.02 0.01 0.01 0.01 0.01 0.01 0.01 0.01 0.01
0.02 0.05 0.12 0.29 0.37 0.32 0.26 0.22 0.23 0.20 0.14 0.13 0.12 0.08 0.05 0.05 0.05 0.05 0.05 0.03 0.03 0.04 0.05 0.05 0.05 0.04 0.04 0.04 0.03 0.02 0.02 0.02 0.02 0.02 0.02 0.01 0.00 0.00 0.00 0.00 0.00 0.00 0.00
0.03 0.05 0.09 0.16 0.27 0.33 0.32 0.32 0.35 0.32 0.24 0.21 0.17 0.14 0.12 0.11 0.09 0.06 0.05 0.04 0.04 0.06 0.07 0.04 0.02 0.01 0.01 0.01 0.01 0.00 0.01 0.01 0.01 0.01 0.02 0.02 0.01 0.00 0.00 0.00 0.00 0.00 0.00
0.02 0.04 0.08 0.13 0.21 0.29 0.31 0.31 0.33 0.36 0.33 0.30 0.22 0.21 0.18 0.13 0.10 0.08 0.06 0.04 0.04 0.03 0.02 0.01 0.00 0.00 0.00 0.00 0.00 0.00 0.00 0.01 0.01 0.01 0.01 0.02 0.03 0.03 0.02 0.00 0.00 0.00 0.00
0.02 0.04 0.07 0.13 0.23 0.28 0.33 0.38 0.40 0.42 0.40 0.35 0.29 0.26 0.21 0.16 0.11 0.07 0.05 0.02 0.01 0.00 0.00 0.00 0.00 0.00 0.00 0.00 0.00 0.00 0.01 0.01 0.01 0.01 0.01 0.01 0.01 0.02 0.03 0.02 0.01 0.00 0.00
0.02 0.04 0.06 0.09 0.15 0.24 0.33 0.38 0.40 0.40 0.36 0.32 0.26 0.20 0.17 0.13 0.09 0.05 0.03 0.02 0.00 0.00 0.00 0.00 0.00 0.00 0.00 0.00 0.00 0.00 0.01 0.01 0.01 0.01 0.01 0.02 0.02 0.02 0.02 0.02 0.01 0.01 0.00
0.02 0.03 0.05 0.07 0.11 0.17 0.24 0.26 0.26 0.27 0.25 0.19 0.15 0.13 0.10 0.08 0.05 0.03 0.02 0.01 0.00 0.00 0.00 0.00 0.00 0.00 0.00 0.00 0.00 0.00 0.00 0.00 0.01 0.01 0.01 0.01 0.01 0.01 0.01 0.02 0.02 0.02 0.01
0.03 0.05 0.05 0.06 0.08 0.09 0.12 0.15 0.14 0.12 0.11 0.08 0.07 0.05 0.04 0.03 0.02 0.01 0.00 0.00 0.00 0.00 0.00 0.00 0.00 0.00 0.00 0.00 0.00 0.00 0.00 0.01 0.01 0.01 0.02 0.01 0.01 0.01 0.03 0.04 0.06 0.05 0.03
0.04 0.05 0.05 0.06 0.06 0.06 0.07 0.08 0.07 0.06 0.05 0.03 0.03 0.02 0.02 0.01 0.01 0.01 0.00 0.00 0.00 0.00 0.00 0.00 0.00 0.00 0.00 0.00 0.00 0.00 0.00 0.01 0.02 0.03 0.03 0.03 0.03 0.03 0.03 0.04 0.06 0.11 0.11
0.07 0.08 0.07 0.04 0.03 0.04 0.05 0.05 0.05 0.04 0.03 0.03 0.02 0.02 0.02 0.01 0.01 0.00 0.00 0.00 0.00 0.00 0.00 0.00 0.00 0.00 0.00 0.00 0.00 0.00 0.01 0.02 0.03 0.03 0.04 0.05 0.04 0.04 0.04 0.05 0.07 0.12 0.16
0.11 0.11 0.08 0.03 0.02 0.03 0.04 0.05 0.06 0.05 0.04 0.04 0.03 0.02 0.01 0.01 0.00 0.00 0.00 0.00 0.00 0.00 0.00 0.00 0.00 0.00 0.00 0.00 0.01 0.01 0.02 0.03 0.04 0.04 0.05 0.06 0.07 0.07 0.07 0.07 0.08 0.08 0.12
0.12 0.10 0.07 0.03 0.02 0.03 0.04 0.06 0.06 0.05 0.05 0.04 0.03 0.02 0.01 0.00 0.00 0.00 0.00 0.00 0.00 0.00 0.00 0.00 0.00 0.00 0.00 0.01 0.02 0.03 0.03 0.04 0.05 0.05 0.05 0.05 0.06 0.08 0.07 0.06 0.06 0.08 0.12
0.10 0.07 0.06 0.04 0.04 0.05 0.07 0.08 0.07 0.06 0.05 0.03 0.02 0.01 0.00 0.00 0.00 0.00 0.00 0.00 0.00 0.00 0.00 0.00 0.00 0.00 0.01 0.02 0.03 0.03 0.04 0.04 0.03 0.03 0.03 0.04 0.05 0.06 0.05 0.06 0.08 0.09 0.12
0.11 0.08 0.07 0.07 0.08 0.10 0.11 0.09 0.07 0.05 0.03 0.02 0.01 0.01 0.00 0.00 0.00 0.00 0.00 0.00 0.00 0.00 0.00 0.01 0.01 0.01 0.02 0.02 0.02 0.02 0.01 0.01 0.01 0.01 0.02 0.03 0.05 0.07 0.09 0.08 0.09 0.10 0.12
0.14 0.13 0.13 0.12 0.11 0.11 0.09 0.06 0.04 0.03 0.02 0.01 0.01 0.01 0.00 0.00 0.00 0.00 0.00 0.00 0.01 0.01 0.01 0.01 0.01 0.01 0.01 0.01 0.00 0.00 0.00 0.00 0.01 0.01 0.02 0.03 0.05 0.09 0.11 0.10 0.10 0.11 0.12
0.21 0.17 0.15 0.13 0.11 0.09 0.08 0.06 0.06 0.05 0.03 0.02 0.01 0.01 0.01 0.01 0.01 0.00 0.00 0.01 0.01 0.00 0.00 0.00 0.00 0.00 0.00 0.00 0.00 0.00 0.00 0.00 0.01 0.02 0.02 0.02 0.03 0.05 0.06 0.06 0.07 0.09 0.12
0.23 0.18 0.17 0.15 0.14 0.14 0.13 0.12 0.11 0.08 0.05 0.03 0.02 0.02 0.02 0.01 0.01 0.00 0.00 0.00 0.00 0.00 0.00 0.00 0.00 0.00 0.00 0.00 0.00 0.00 0.00 0.01 0.03 0.04 0.04 0.03 0.03 0.05 0.05 0.05 0.06 0.06 0.10
0.23 0.20 0.18 0.20 0.23 0.23 0.20 0.18 0.13 0.08 0.06 0.05 0.04 0.03 0.02 0.01 0.01 0.00 0.00 0.00 0.00 0.00 0.00 0.00 0.00 0.01 0.01 0.00 0.00 0.00 0.01 0.02 0.03 0.04 0.05 0.06 0.06 0.06 0.06 0.04 0.04 0.06 0.11
0.21 0.25 0.29 0.32 0.32 0.29 0.23 0.17 0.11 0.07 0.06 0.04 0.03 0.02 0.01 0.00 0.00 0.00 0.00 0.00 0.00 0.00 0.01 0.00 0.00 0.01 0.02 0.00 0.00 0.00 0.01 0.01 0.01 0.01 0.02 0.04 0.05 0.06 0.07 0.06 0.06 0.09 0.14
0.27 0.35 0.36 0.33 0.28 0.22 0.15 0.10 0.07 0.04 0.03 0.02 0.01 0.00 0.00 0.00 0.00 0.00 0.00 0.00 0.01 0.00 0.00 0.00 0.01 0.02 0.03 0.01 0.00 0.01 0.01 0.02 0.01 0.01 0.01 0.03 0.06 0.07 0.08 0.07 0.09 0.13 0.21
0.36 0.35 0.31 0.26 0.19 0.12 0.07 0.05 0.04 0.02 0.01 0.00 0.00 0.00 0.00 0.00 0.00 0.00 0.00 0.00 0.00 0.00 0.00 0.01 0.01 0.02 0.02 0.01 0.00 0.01 0.02 0.03 0.04 0.04 0.05 0.06 0.10 0.11 0.08 0.09 0.13 0.23 0.37
0.34 0.30 0.24 0.16 0.09 0.06 0.04 0.03 0.02 0.01 0.00 0.00 0.00 0.00 0.00 0.00 0.00 0.00 0.00 0.00 0.00 0.00 0.01 0.01 0.01 0.02 0.02 0.02 0.01 0.00 0.01 0.03 0.05 0.09 0.09 0.11 0.16 0.13 0.12 0.16 0.26 0.37 0.52
0.25 0.18 0.11 0.06 0.04 0.02 0.01 0.01 0.01 0.00 0.00 0.00 0.00 0.00 0.00 0.00 0.00 0.00 0.00 0.00 0.00 0.01 0.01 0.01 0.01 0.01 0.02 0.01 0.01 0.01 0.01 0.03 0.06 0.11 0.17 0.20 0.19 0.20 0.23 0.33 0.45 0.50 0.54
0.09 0.06 0.04 0.03 0.02 0.01 0.01 0.00 0.00 0.00 0.00 0.00 0.00 0.00 0.00 0.00 0.00 0.00 0.00 0.00 0.01 0.01 0.01 0.02 0.02 0.02 0.02 0.02 0.03 0.02 0.03 0.05 0.08 0.12 0.21 0.30 0.33 0.35 0.40 0.45 0.49 0.49 0.56
0.03 0.03 0.02 0.01 0.01 0.00 0.00 0.00 0.00 0.00 0.00 0.00 0.00 0.00 0.00 0.00 0.00 0.00 0.00 0.00 0.01 0.01 0.02 0.03 0.03 0.04 0.04 0.04 0.05 0.07 0.08 0.11 0.14 0.15 0.21 0.27 0.31 0.36 0.40 0.39 0.42 0.42 0.40
0.02 0.01 0.01 0.00 0.00 0.00 0.00 0.00 0.00 0.00 0.00 0.00 0.00 0.00 0.00 0.00 0.00 0.00 0.01 0.00 0.00 0.00 0.01 0.01 0.02 0.03 0.05 0.04 0.03 0.05 0.08 0.12 0.15 0.17 0.25 0.35 0.41 0.45 0.46 0.42 0.40 0.38 0.33

GEFSMW_prec_meanprecacc_030.txt.gz
Total_Precipitation_Accumulation
0.01 0.04 0.11 0.27 0.46 0.46 0.36 0.24 0.17 0.16 0.14 0.11 0.07 0.06 0.04 0.04 0.05 0.07 0.10 0.11 0.10 0.09 0.09 0.10 0.11 0.10 0.09 0.08 0.07 0.06 0.04 0.03 0.02 0.02 0.02 0.01 0.01 0.01 0.01 0.01 0.01 0.01 0.01
0.02 0.05 0.12 0.31 0.46 0.46 0.38 0.31 0.33 0.30 0.23 0.21 0.18 0.13 0.10 0.11 0.14 0.18 0.19 0.17 0.15 0.12 0.10 0.09 0.08 0.07 0.05 0.04 0.04 0.02 0.02 0.02 0.02 0.02 0.02 0.01 0.00 0.00 0.00 0.00 0.00 0.00 0.00
0.03 0.05 0.10 0.17 0.31 0.43 0.45 0.45 0.51 0.52 0.47 0.45 0.37 0.31 0.29 0.30 0.31 0.30 0.27 0.22 0.18 0.14 0.12 0.08 0.05 0.03 0.02 0.01 0.01 0.00 0.01 0.01 0.01 0.01 0.02 0.02 0.01 0.00 0.00 0.00 0.00 0.00 0.00
0.02 0.04 0.08 0.14 0.23 0.35 0.41 0.46 0.54 0.69 0.81 0.90 0.84 0.72 0.58 0.49 0.45 0.41 0.34 0.26 0.18 0.12 0.08 0.05 0.03 0.02 0.00 0.00 0.00 0.00 0.00 0.01 0.01 0.01 0.01 0.02 0.03 0.03 0.02 0.00 0.00 0.00 0.00
0.02 0.04 0.08 0.15 0.28 0.37 0.50 0.61 0.72 0.88 1.01 1.04 1.02 0.91 0.72 0.61 0.54 0.46 0.34 0.21 0.12 0.08 0.06 0.05 0.04 0.02 0.01 0.00 0.00 0.00 0.01 0.01 0.01 0.01 0.01 0.01 0.01 0.02 0.03 0.02 0.01 0.00 0.00
0.02 0.04 0.07 0.14 0.26 0.42 0.58 0.70 0.77 0.86 0.91 0.87 0.76 0.63 0.58 0.51 0.43 0.33 0.23 0.14 0.09 0.06 0.04 0.03 0.03 0.01 0.00 0.00 0.00 0.00 0.01 0.01 0.01 0.01 0.01 0.02 0.02 0.02 0.02 0.02 0.01 0.01 0.00
0.02 0.05 0.10 0.17 0.26 0.39 0.51 0.55 0.56 0.55 0.54 0.48 0.43 0.37 0.33 0.27 0.20 0.16 0.13 0.08 0.04 0.03 0.02 0.02 0.01 0.01 0.00 0.00 0.00 0.00 0.00 0.00 0.01 0.01 0.01 0.01 0.01 0.01 0.01 0.02 0.02 0.02 0.01
0.05 0.08 0.12 0.18 0.25 0.30 0.34 0.35 0.31 0.25 0.20 0.17 0.18 0.17 0.14 0.12 0.10 0.07 0.05 0.03 0.02 0.01 0.01 0.01 0.00 0.00 0.00 0.00 0.00 0.00 0.00 0.01 0.01 0.01 0.02 0.01 0.01 0.01 0.03 0.04 0.06 0.06 0.03
0.09 0.13 0.17 0.21 0.23 0.23 0.22 0.18 0.13 0.11 0.08 0.06 0.07 0.06 0.06 0.06 0.05 0.04 0.02 0.02 0.01 0.01 0.00 0.00 0.00 0.00 0.00 0.00 0.00 0.00 0.00 0.01 0.02 0.03 0.03 0.03 0.03 0.03 0.03 0.04 0.07 0.13 0.12
0.13 0.18 0.20 0.19 0.17 0.15 0.13 0.10 0.09 0.07 0.05 0.04 0.04 0.04 0.04 0.04 0.03 0.02 0.01 0.01 0.01 0.00 0.00 0.00 0.00 0.00 0.00 0.00 0.00 0.00 0.01 0.02 0.03 0.04 0.04 0.06 0.05 0.05 0.05 0.06 0.08 0.13 0.18
0.20 0.25 0.24 0.17 0.12 0.11 0.10 0.09 0.09 0.06 0.05 0.05 0.05 0.05 0.04 0.03 0.02 0.01 0.01 0.01 0.00 0.00 0.00 0.00 0.00 0.00 0.00 0.00 0.01 0.02 0.02 0.03 0.04 0.05 0.06 0.07 0.07 0.08 0.07 0.07 0.08 0.09 0.13
0.33 0.33 0.27 0.17 0.10 0.08 0.07 0.07 0.07 0.06 0.06 0.06 0.05 0.04 0.03 0.02 0.01 0.01 0.01 0.01 0.00 0.00 0.00 0.00 0.00 0.00 0.00 0.01 0.02 0.03 0.03 0.05 0.05 0.05 0.05 0.05 0.06 0.08 0.07 0.06 0.06 0.08 0.12
0.52 0.37 0.23 0.13 0.08 0.07 0.08 0.09 0.08 0.07 0.06 0.04 0.03 0.02 0.01 0.01 0.01 0.01 0.01 0.00 0.01 0.01 0.00 0.00 0.01 0.01 0.01 0.02 0.03 0.04 0.04 0.04 0.03 0.03 0.03 0.04 0.05 0.06 0.05 0.06 0.08 0.09 0.12
0.30 0.18 0.12 0.09 0.09 0.11 0.11 0.09 0.07 0.06 0.03 0.02 0.01 0.01 0.01 0.01 0.01 0.01 0.01 0.01 0.01 0.01 0.01 0.01 0.01 0.01 0.02 0.02 0.02 0.02 0.01 0.01 0.01 0.01 0.02 0.03 0.05 0.07 0.09 0.08 0.09 0.11 0.13
0.23 0.17 0.15 0.13 0.12 0.11 0.09 0.06 0.05 0.03 0.02 0.02 0.01 0.01 0.01 0.01 0.01 0.01 0.01 0.01 0.01 0.01 0.01 0.01 0.01 0.01 0.01 0.01 0.00 0.00 0.00 0.00 0.01 0.01 0.02 0.03 0.05 0.10 0.12 0.12 0.11 0.13 0.14
0.27 0.20 0.17 0.14 0.11 0.10 0.08 0.07 0.07 0.06 0.04 0.04 0.03 0.03 0.02 0.02 0.02 0.01 0.01 0.01 0.01 0.01 0.01 0.00 0.00 0.00 0.00 0.00 0.00 0.00 0.00 0.00 0.01 0.02 0.03 0.02 0.03 0.05 0.07 0.08 0.11 0.14 0.17
0.26 0.20 0.18 0.15 0.14 0.14 0.14 0.14 0.13 0.11 0.08 0.06 0.06 0.05 0.04 0.04 0.03 0.02 0.01 0.01 0.01 0.01 0.00 0.00 0.00 0.00 0.00 0.00 0.00 0.00 0.00 0.01 0.03 0.04 0.04 0.03 0.03 0.05 0.06 0.06 0.07 0.08 0.13
0.24 0.21 0.19 0.21 0.24 0.24 0.22 0.21 0.17 0.13 0.12 0.11 0.09 0.07 0.05 0.04 0.02 0.01 0.01 0.00 0.00 0.00 0.00 0.00 0.00 0.01 0.01 0.00 0.00 0.00 0.01 0.02 0.03 0.04 0.05 0.06 0.07 0.06 0.07 0.05 0.05 0.07 0.12
0.22 0.26 0.30 0.34 0.34 0.32 0.27 0.21 0.17 0.14 0.13 0.10 0.07 0.04 0.03 0.02 0.01 0.00 0.00 0.00 0.00 0.00 0.01 0.00 0.01 0.01 0.02 0.00 0.00 0.00 0.01 0.01 0.01 0.02 0.02 0.05 0.05 0.07 0.09 0.08 0.07 0.10 0.15
0.27 0.36 0.37 0.35 0.31 0.25 0.18 0.14 0.12 0.10 0.07 0.04 0.02 0.01 0.00 0.00 0.00 0.00 0.00 0.00 0.01 0.00 0.00 0.00 0.01 0.02 0.04 0.01 0.00 0.01 0.01 0.02 0.01 0.01 0.01 0.04 0.07 0.09 0.10 0.08 0.11 0.15 0.22
0.36 0.36 0.32 0.28 0.22 0.15 0.10 0.08 0.06 0.04 0.02 0.01 0.01 0.00 0.00 0.00 0.00 0.00 0.00 0.00 0.00 0.01 0.00 0.01 0.01 0.03 0.03 0.01 0.00 0.01 0.02 0.03 0.04 0.05 0.06 0.07 0.12 0.13 0.10 0.11 0.16 0.26 0.39
0.34 0.31 0.26 0.18 0.12 0.08 0.06 0.04 0.02 0.01 0.00 0.00 0.00 0.00 0.00 0.00 0.00 0.00 0.00 0.00 0.01 0.01 0.01 0.01 0.01 0.02 0.02 0.02 0.01 0.00 0.01 0.03 0.06 0.10 0.10 0.13 0.18 0.16 0.15 0.18 0.29 0.40 0.55
0.26 0.19 0.12 0.07 0.05 0.04 0.02 0.01 0.01 0.00 0.00 0.00 0.00 0.00 0.00 0.00 0.00 0.00 0.00 0.00 0.00 0.01 0.01 0.01 0.01 0.01 0.02 0.02 0.01 0.01 0.01 0.03 0.06 0.13 0.19 0.22 0.21 0.22 0.25 0.35 0.47 0.53 0.56
0.09 0.06 0.04 0.03 0.02 0.01 0.01 0.00 0.00 0.00 0.00 0.00 0.01 0.01 0.01 0.00 0.00 0.00 0.00 0.00 0.01 0.01 0.01 0.02 0.02 0.03 0.02 0.03 0.03 0.02 0.03 0.06 0.08 0.13 0.23 0.32 0.34 0.36 0.41 0.46 0.50 0.50 0.58
0.04 0.03 0.03 0.02 0.01 0.00 0.00 0.00 0.00 0.00 0.00 0.00 0.01 0.01 0.01 0.00 0.00 0.00 0.00 0.00 0.01 0.01 0.02 0.03 0.03 0.05 0.05 0.04 0.05 0.07 0.08 0.11 0.14 0.16 0.22 0.27 0.32 0.37 0.41 0.41 0.43 0.43 0.42
0.03 0.02 0.01 0.01 0.00 0.00 0.00 0.00 0.00 0.00 0.00 0.01 0.01 0.01 0.00 0.01 0.00 0.01 0.01 0.01 0.00 0.00 0.01 0.02 0.02 0.03 0.05 0.04 0.03 0.05 0.08 0.12 0.16 0.18 0.26 0.36 0.43 0.47 0.48 0.44 0.42 0.40 0.36

GEFSMW_prec_meanprecacc_036.txt.gz
Total_Precipitation_Accumulation
0.01 0.04 0.11 0.27 0.46 0.46 0.36 0.24 0.17 0.18 0.19 0.19 0.18 0.20 0.21 0.30 0.42 0.49 0.49 0.51 0.51 0.49 0.46 0.42 0.36 0.28 0.23 0.19 0.15 0.12 0.08 0.06 0.04 0.03 0.02 0.02 0.02 0.01 0.01 0.01 0.01 0.01 0.01
0.02 0.05 0.12 0.31 0.46 0.46 0.38 0.33 0.36 0.37 0.37 0.43 0.49 0.56 0.65 0.78 0.86 0.94 0.96 0.91 0.77 0.65 0.56 0.45 0.34 0.25 0.18 0.14 0.10 0.07 0.04 0.03 0.03 0.03 0.02 0.01 0.00 0.00 0.00 0.00 0.00 0.00 0.00
0.03 0.05 0.10 0.17 0.31 0.43 0.47 0.49 0.58 0.66 0.72 0.84 0.91 0.98 1.14 1.25 1.24 1.17 1.08 1.01 0.89 0.74 0.59 0.43 0.30 0.20 0.14 0.09 0.06 0.03 0.02 0.02 0.01 0.01 0.02 0.02 0.01 0.00 0.00 0.00 0.00 0.00 0.00
0.02 0.04 0.08 0.14 0.23 0.35 0.44 0.52 0.65 0.90 1.21 1.52 1.70 1.72 1.69 1.60 1.42 1.24 1.08 0.93 0.81 0.67 0.51 0.38 0.25 0.16 0.09 0.04 0.02 0.01 0.01 0.01 0.01 0.01 0.01 0.02 0.03 0.03 0.02 0.00 0.00 0.00 0.00
0.02 0.04 0.08 0.15 0.29 0.40 0.55 0.71 0.91 1.24 1.57 1.80 1.94 1.96 1.82 1.58 1.31 1.07 0.86 0.68 0.55 0.46 0.36 0.26 0.17 0.10 0.05 0.03 0.01 0.01 0.01 0.01 0.01 0.01 0.01 0.01 0.01 0.02 0.03 0.02 0.01 0.00 0.00
0.02 0.04 0.08 0.15 0.28 0.47 0.68 0.86 1.06 1.36 1.60 1.68 1.72 1.62 1.50 1.25 0.95 0.69 0.52 0.41 0.34 0.27 0.21 0.16 0.12 0.07 0.04 0.02 0.01 0.01 0.01 0.01 0.01 0.01 0.01 0.02 0.02 0.02 0.02 0.02 0.01 0.01 0.00
0.03 0.06 0.11 0.19 0.32 0.48 0.68 0.81 0.96 1.13 1.25 1.30 1.34 1.19 0.97 0.75 0.56 0.43 0.34 0.27 0.22 0.18 0.14 0.09 0.05 0.03 0.01 0.01 0.01 0.01 0.00 0.01 0.01 0.01 0.01 0.01 0.01 0.01 0.01 0.02 0.02 0.02 0.01
0.07 0.11 0.16 0.23 0.35 0.45 0.58 0.68 0.73 0.77 0.75 0.70 0.65 0.57 0.47 0.36 0.30 0.25 0.20 0.17 0.12 0.08 0.05 0.03 0.02 0.02 0.01 0.01 0.00 0.00 0.00 0.01 0.01 0.01 0.02 0.01 0.01 0.01 0.03 0.04 0.06 0.06 0.03
0.11 0.16 0.21 0.27 0.32 0.36 0.39 0.39 0.37 0.37 0.32 0.26 0.24 0.21 0.18 0.17 0.16 0.14 0.10 0.07 0.05 0.03 0.02 0.01 0.01 0.01 0.00 0.00 0.00 0.00 0.00 0.01 0.02 0.03 0.03 0.03 0.03 0.03 0.03 0.04 0.07 0.13 0.12
0.15 0.20 0.24 0.25 0.23 0.22 0.19 0.17 0.17 0.16 0.13 0.11 0.10 0.09 0.08 0.07 0.07 0.06 0.04 0.03 0.03 0.01 0.01 0.01 0.00 0.00 0.00 0.00 0.00 0.00 0.01 0.02 0.03 0.04 0.04 0.06 0.05 0.05 0.05 0.06 0.08 0.13 0.18
0.22 0.27 0.27 0.20 0.14 0.12 0.11 0.11 0.11 0.09 0.07 0.07 0.06 0.06 0.05 0.04 0.03 0.02 0.02 0.02 0.01 0.01 0.01 0.00 0.00 0.00 0.00 0.00 0.01 0.02 0.02 0.03 0.04 0.05 0.06 0.07 0.07 0.08 0.07 0.07 0.08 0.09 0.13
0.34 0.34 0.28 0.18 0.11 0.08 0.08 0.08 0.08 0.07 0.07 0.06 0.05 0.04 0.04 0.03 0.02 0.02 0.01 0.01 0.01 0.01 0.01 0.01 0.00 0.00 0.00 0.01 0.02 0.03 0.03 0.05 0.05 0.05 0.05 0.05 0.06 0.08 0.07 0.06 0.06 0.08 0.12
0.53 0.38 0.24 0.13 0.09 0.07 0.08 0.09 0.08 0.07 0.06 0.04 0.03 0.02 0.02 0.01 0.01 0.01 0.01 0.01 0.01 0.01 0.01 0.01 0.01 0.01 0.01 0.02 0.03 0.04 0.04 0.04 0.03 0.03 0.03 0.04 0.05 0.06 0.05 0.06 0.08 0.09 0.12
0.31 0.19 0.13 0.09 0.09 0.11 0.12 0.09 0.07 0.06 0.03 0.02 0.02 0.01 0.01 0.01 0.01 0.01 0.01 0.01 0.01 0.01 0.01 0.01 0.01 0.01 0.02 0.02 0.02 0.02 0.01 0.01 0.01 0.01 0.02 0.03 0.05 0.07 0.09 0.09 0.09 0.11 0.13
0.24 0.18 0.15 0.13 0.12 0.11 0.09 0.06 0.05 0.04 0.02 0.02 0.02 0.02 0.02 0.01 0.01 0.02 0.02 0.01 0.01 0.01 0.01 0.01 0.01 0.01 0.01 0.01 0.00 0.00 0.00 0.00 0.01 0.01 0.02 0.03 0.05 0.10 0.12 0.13 0.12 0.14 0.16
0.28 0.21 0.17 0.14 0.12 0.10 0.08 0.07 0.07 0.07 0.06 0.05 0.05 0.04 0.04 0.04 0.03 0.03 0.02 0.02 0.02 0.01 0.01 0.01 0.00 0.00 0.00 0.00 0.00 0.00 0.00 0.00 0.01 0.02 0.03 0.02 0.03 0.05 0.07 0.08 0.12 0.17 0.20
0.27 0.20 0.18 0.16 0.15 0.15 0.15 0.15 0.14 0.12 0.10 0.09 0.09 0.09 0.08 0.07 0.05 0.03 0.02 0.01 0.01 0.01 0.00 0.00 0.00 0.00 0.00 0.00 0.00 0.00 0.00 0.01 0.03 0.04 0.04 0.03 0.03 0.05 0.06 0.07 0.07 0.08 0.14
0.24 0.21 0.19 0.21 0.24 0.24 0.23 0.22 0.19 0.16 0.15 0.15 0.14 0.10 0.08 0.06 0.04 0.02 0.01 0.01 0.00 0.00 0.00 0.00 0.00 0.01 0.01 0.00 0.00 0.00 0.01 0.02 0.03 0.04 0.05 0.06 0.07 0.07 0.07 0.06 0.05 0.07 0.12
0.22 0.26 0.30 0.34 0.35 0.33 0.28 0.24 0.20 0.18 0.16 0.14 0.10 0.06 0.04 0.02 0.01 0.01 0.00 0.00 0.00 0.01 0.01 0.00 0.01 0.01 0.02 0.00 0.00 0.00 0.01 0.01 0.01 0.02 0.02 0.05 0.06 0.08 0.10 0.08 0.08 0.10 0.15
0.28 0.36 0.37 0.36 0.32 0.27 0.20 0.17 0.15 0.12 0.09 0.05 0.03 0.02 0.01 0.00 0.00 0.00 0.00 0.00 0.01 0.00 0.00 0.00 0.01 0.02 0.04 0.01 0.00 0.01 0.01 0.02 0.01 0.01 0.01 0.04 0.07 0.10 0.10 0.09 0.12 0.17 0.23
0.36 0.36 0.33 0.29 0.23 0.16 0.12 0.10 0.07 0.05 0.03 0.01 0.01 0.00 0.00 0.00 0.00 0.00 0.00 0.00 0.00 0.01 0.00 0.01 0.01 0.03 0.03 0.01 0.00 0.01 0.02 0.03 0.04 0.05 0.06 0.07 0.12 0.13 0.11 0.12 0.17 0.28 0.41
0.35 0.32 0.27 0.19 0.13 0.09 0.07 0.05 0.03 0.01 0.01 0.00 0.00 0.00 0.00 0.00 0.00 0.00 0.00 0.00 0.01 0.01 0.01 0.01 0.01 0.02 0.02 0.02 0.01 0.00 0.01 0.03 0.06 0.10 0.11 0.14 0.19 0.16 0.15 0.19 0.30 0.41 0.57
0.26 0.20 0.13 0.08 0.06 0.04 0.02 0.01 0.01 0.00 0.00 0.00 0.00 0.00 0.00 0.00 0.00 0.00 0.00 0.00 0.00 0.01 0.01 0.01 0.01 0.01 0.02 0.02 0.01 0.01 0.01 0.03 0.07 0.13 0.21 0.23 0.22 0.22 0.26 0.36 0.48 0.55 0.58
0.10 0.07 0.05 0.04 0.02 0.01 0.01 0.00 0.00 0.00 0.00 0.00 0.01 0.02 0.02 0.01 0.00 0.00 0.00 0.00 0.01 0.01 0.01 0.02 0.02 0.03 0.02 0.03 0.03 0.03 0.03 0.06 0.08 0.14 0.24 0.33 0.35 0.37 0.42 0.47 0.53 0.53 0.61
0.04 0.04 0.03 0.02 0.01 0.00 0.00 0.00 0.00 0.00 0.00 0.01 0.01 0.02 0.01 0.00 0.00 0.00 0.00 0.00 0.01 0.01 0.02 0.03 0.03 0.05 0.05 0.04 0.06 0.07 0.08 0.11 0.15 0.16 0.22 0.28 0.33 0.39 0.42 0.42 0.45 0.46 0.45
0.03 0.02 0.01 0.01 0.00 0.00 0.00 0.00 0.00 0.00 0.00 0.01 0.01 0.01 0.00 0.01 0.00 0.01 0.01 0.01 0.00 0.00 0.01 0.02 0.03 0.04 0.05 0.05 0.04 0.05 0.09 0.13 0.17 0.18 0.26 0.38 0.45 0.49 0.50 0.46 0.45 0.44 0.39

GEFSMW_prec_meanprecacc_042.txt.gz
Total_Precipitation_Accumulation
0.01 0.04 0.11 0.27 0.46 0.46 0.36 0.25 0.18 0.20 0.24 0.29 0.32 0.44 0.50 0.59 0.77 0.91 0.99 1.03 1.04 0.99 0.95 0.87 0.77 0.64 0.56 0.48 0.38 0.30 0.23 0.18 0.14 0.11 0.07 0.04 0.03 0.02 0.01 0.01 0.01 0.01 0.01
0.02 0.05 0.12 0.31 0.46 0.46 0.39 0.35 0.38 0.41 0.45 0.61 0.81 1.01 1.20 1.39 1.58 1.70 1.70 1.63 1.49 1.35 1.21 1.07 0.92 0.74 0.60 0.48 0.37 0.27 0.19 0.13 0.10 0.09 0.06 0.03 0.01 0.00 0.00 0.00 0.00 0.00 0.00
0.03 0.05 0.10 0.17 0.32 0.43 0.47 0.51 0.62 0.72 0.82 1.04 1.27 1.54 1.85 2.06 2.06 1.95 1.85 1.74 1.59 1.43 1.24 1.05 0.90 0.76 0.59 0.45 0.33 0.22 0.14 0.09 0.06 0.04 0.05 0.04 0.02 0.01 0.00 0.00 0.00 0.00 0.00
0.02 0.04 0.08 0.14 0.23 0.35 0.44 0.54 0.69 0.96 1.29 1.67 1.98 2.18 2.29 2.29 2.11 1.87 1.66 1.42 1.23 1.10 0.96 0.87 0.79 0.64 0.47 0.34 0.23 0.15 0.09 0.06 0.04 0.03 0.03 0.03 0.03 0.03 0.02 0.00 0.00 0.00 0.00
0.03 0.04 0.08 0.15 0.29 0.40 0.55 0.73 0.95 1.29 1.64 1.94 2.16 2.30 2.23 2.00 1.71 1.43 1.15 0.90 0.75 0.71 0.67 0.60 0.49 0.36 0.26 0.20 0.14 0.09 0.07 0.05 0.04 0.03 0.02 0.02 0.01 0.02 0.03 0.02 0.01 0.00 0.00
0.03 0.05 0.09 0.16 0.29 0.48 0.69 0.88 1.09 1.41 1.69 1.80 1.89 1.84 1.74 1.52 1.21 0.92 0.68 0.53 0.45 0.39 0.33 0.29 0.25 0.20 0.14 0.11 0.09 0.06 0.05 0.03 0.03 0.02 0.02 0.02 0.02 0.02 0.02 0.02 0.01 0.01 0.00
0.04 0.07 0.13 0.21 0.33 0.50 0.70 0.84 0.99 1.18 1.33 1.42 1.48 1.34 1.12 0.91 0.72 0.55 0.42 0.33 0.28 0.25 0.21 0.15 0.11 0.08 0.06 0.05 0.04 0.03 0.02 0.02 0.02 0.01 0.01 0.01 0.01 0.01 0.01 0.02 0.02 0.02 0.01
0.09 0.13 0.18 0.25 0.38 0.48 0.61 0.72 0.78 0.83 0.84 0.81 0.77 0.69 0.59 0.48 0.38 0.30 0.23 0.19 0.15 0.12 0.09 0.06 0.05 0.04 0.03 0.02 0.02 0.01 0.01 0.01 0.01 0.01 0.02 0.01 0.01 0.01 0.03 0.04 0.06 0.06 0.03
0.14 0.18 0.24 0.30 0.35 0.39 0.43 0.43 0.41 0.42 0.39 0.33 0.30 0.27 0.23 0.20 0.18 0.15 0.11 0.08 0.06 0.05 0.04 0.03 0.02 0.02 0.01 0.01 0.01 0.01 0.01 0.01 0.02 0.03 0.03 0.03 0.03 0.03 0.03 0.04 0.07 0.13 0.13
0.17 0.23 0.26 0.27 0.25 0.24 0.22 0.20 0.19 0.18 0.15 0.13 0.11 0.10 0.09 0.08 0.07 0.06 0.05 0.04 0.03 0.02 0.01 0.01 0.01 0.01 0.01 0.01 0.01 0.01 0.01 0.02 0.03 0.04 0.05 0.06 0.05 0.05 0.05 0.06 0.08 0.13 0.18
0.25 0.29 0.29 0.21 0.16 0.14 0.12 0.11 0.12 0.10 0.08 0.07 0.07 0.06 0.05 0.04 0.03 0.03 0.02 0.02 0.01 0.01 0.01 0.01 0.00 0.00 0.01 0.01 0.01 0.02 0.02 0.03 0.04 0.05 0.06 0.07 0.07 0.08 0.07 0.07 0.08 0.09 0.14
0.36 0.36 0.30 0.19 0.12 0.09 0.08 0.08 0.08 0.07 0.07 0.06 0.05 0.04 0.04 0.03 0.02 0.02 0.01 0.01 0.01 0.01 0.01 0.01 0.01 0.01 0.01 0.01 0.02 0.03 0.03 0.05 0.05 0.05 0.05 0.05 0.06 0.08 0.07 0.07 0.06 0.08 0.12
0.54 0.38 0.24 0.14 0.09 0.07 0.08 0.09 0.08 0.08 0.06 0.04 0.03 0.03 0.02 0.01 0.01 0.01 0.01 0.01 0.01 0.01 0.01 0.01 0.01 0.01 0.01 0.02 0.03 0.04 0.04 0.04 0.03 0.03 0.03 0.04 0.05 0.06 0.06 0.07 0.08 0.10 0.13
0.32 0.19 0.13 0.09 0.09 0.11 0.12 0.09 0.07 0.06 0.03 0.02 0.02 0.01 0.01 0.01 0.01 0.01 0.01 0.01 0.01 0.01 0.01 0.01 0.01 0.01 0.02 0.02 0.02 0.02 0.01 0.01 0.01 0.01 0.02 0.03 0.05 0.07 0.10 0.10 0.11 0.14 0.16
0.25 0.19 0.16 0.13 0.12 0.12 0.09 0.06 0.05 0.04 0.02 0.02 0.02 0.02 0.02 0.02 0.02 0.02 0.02 0.02 0.02 0.01 0.01 0.01 0.01 0.01 0.01 0.01 0.00 0.00 0.00 0.00 0.01 0.01 0.02 0.03 0.05 0.11 0.13 0.14 0.16 0.18 0.21
0.31 0.23 0.18 0.15 0.12 0.10 0.09 0.07 0.07 0.07 0.06 0.05 0.05 0.05 0.05 0.05 0.05 0.04 0.03 0.02 0.02 0.02 0.01 0.01 0.00 0.00 0.00 0.00 0.00 0.00 0.00 0.01 0.01 0.02 0.03 0.03 0.03 0.06 0.07 0.09 0.13 0.19 0.25
0.30 0.23 0.19 0.17 0.16 0.16 0.16 0.15 0.15 0.13 0.11 0.11 0.11 0.10 0.10 0.08 0.06 0.04 0.02 0.02 0.01 0.01 0.01 0.00 0.00 0.01 0.01 0.00 0.00 0.00 0.00 0.01 0.04 0.05 0.05 0.04 0.04 0.07 0.08 0.08 0.08 0.10 0.16
0.30 0.25 0.22 0.23 0.26 0.26 0.24 0.23 0.20 0.17 0.17 0.18 0.16 0.12 0.09 0.07 0.04 0.02 0.01 0.01 0.01 0.00 0.01 0.01 0.01 0.01 0.01 0.00 0.00 0.00 0.01 0.02 0.04 0.05 0.06 0.08 0.09 0.09 0.09 0.07 0.06 0.09 0.15
0.26 0.29 0.32 0.35 0.36 0.34 0.29 0.25 0.22 0.20 0.18 0.15 0.11 0.07 0.05 0.03 0.02 0.01 0.00 0.00 0.01 0.01 0.01 0.01 0.01 0.02 0.03 0.01 0.00 0.00 0.01 0.02 0.02 0.02 0.03 0.06 0.08 0.09 0.10 0.10 0.10 0.13 0.18
0.29 0.37 0.38 0.37 0.33 0.28 0.21 0.18 0.16 0.13 0.10 0.06 0.04 0.02 0.01 0.01 0.00 0.00 0.00 0.01 0.01 0.01 0.01 0.01 0.01 0.03 0.04 0.01 0.00 0.01 0.02 0.02 0.02 0.02 0.03 0.05 0.08 0.10 0.10 0.10 0.15 0.21 0.26
0.37 0.37 0.34 0.30 0.25 0.18 0.13 0.11 0.09 0.06 0.03 0.02 0.01 0.01 0.01 0.00 0.00 0.00 0.00 0.01 0.01 0.01 0.01 0.01 0.02 0.03 0.03 0.02 0.00 0.01 0.03 0.04 0.05 0.06 0.07 0.09 0.13 0.14 0.11 0.12 0.19 0.31 0.43
0.35 0.33 0.27 0.20 0.14 0.10 0.08 0.06 0.04 0.02 0.01 0.01 0.01 0.01 0.01 0.00 0.00 0.01 0.01 0.01 0.01 0.01 0.01 0.01 0.02 0.02 0.03 0.02 0.01 0.00 0.01 0.03 0.07 0.12 0.13 0.15 0.19 0.16 0.16 0.20 0.31 0.43 0.59
0.27 0.20 0.13 0.09 0.07 0.05 0.03 0.03 0.02 0.01 0.01 0.02 0.02 0.01 0.01 0.00 0.00 0.01 0.01 0.01 0.01 0.01 0.01 0.02 0.02 0.02 0.03 0.03 0.01 0.01 0.01 0.03 0.07 0.15 0.21 0.24 0.22 0.23 0.28 0.37 0.50 0.57 0.63
0.10 0.07 0.05 0.04 0.03 0.02 0.01 0.01 0.01 0.01 0.02 0.02 0.02 0.03 0.02 0.01 0.01 0.01 0.01 0.01 0.02 0.02 0.02 0.03 0.03 0.04 0.04 0.04 0.03 0.03 0.04 0.06 0.09 0.15 0.24 0.34 0.36 0.38 0.44 0.50 0.56 0.58 0.65
0.05 0.04 0.03 0.02 0.01 0.01 0.01 0.01 0.01 0.01 0.02 0.03 0.03 0.03 0.02 0.01 0.01 0.01 0.01 0.01 0.02 0.01 0.02 0.03 0.04 0.06 0.06 0.05 0.06 0.08 0.09 0.12 0.15 0.17 0.24 0.30 0.35 0.40 0.44 0.44 0.48 0.50 0.50
0.04 0.02 0.01 0.01 0.00 0.00 0.00 0.00 0.01 0.01 0.02 0.02 0.02 0.02 0.01 0.01 0.01 0.01 0.02 0.01 0.00 0.00 0.01 0.02 0.03 0.04 0.06 0.05 0.04 0.06 0.09 0.14 0.18 0.19 0.28 0.39 0.47 0.51 0.52 0.48 0.48 0.48 0.43

GEFSMW_prec_meanprecacc_048.txt.gz
Total_Precipitation_Accumulation
0.02 0.05 0.13 0.29 0.47 0.46 0.36 0.25 0.19 0.21 0.26 0.31 0.34 0.47 0.57 0.65 0.82 0.96 1.04 1.07 1.07 1.02 0.98 0.92 0.85 0.74 0.67 0.59 0.47 0.40 0.32 0.26 0.21 0.17 0.12 0.08 0.05 0.04 0.03 0.03 0.02 0.02 0.02
0.02 0.05 0.13 0.31 0.46 0.46 0.39 0.36 0.43 0.47 0.50 0.67 0.87 1.09 1.28 1.46 1.64 1.76 1.75 1.68 1.53 1.37 1.24 1.11 0.98 0.83 0.73 0.61 0.47 0.36 0.28 0.22 0.18 0.16 0.13 0.08 0.03 0.02 0.01 0.01 0.01 0.01 0.01
0.03 0.05 0.10 0.17 0.32 0.44 0.48 0.54 0.70 0.82 0.92 1.12 1.33 1.61 1.91 2.12 2.13 2.02 1.92 1.81 1.64 1.46 1.27 1.09 0.95 0.83 0.68 0.55 0.41 0.30 0.22 0.17 0.13 0.10 0.10 0.08 0.05 0.02 0.01 0.00 0.00 0.00 0.00
0.02 0.04 0.08 0.14 0.24 0.36 0.46 0.58 0.78 1.08 1.41 1.78 2.06 2.25 2.36 2.37 2.20 1.96 1.75 1.49 1.29 1.14 0.99 0.90 0.83 0.68 0.52 0.39 0.28 0.19 0.14 0.10 0.07 0.05 0.05 0.06 0.05 0.05 0.03 0.01 0.00 0.00 0.00
0.03 0.04 0.09 0.16 0.30 0.41 0.58 0.77 1.03 1.41 1.79 2.09 2.32 2.44 2.36 2.15 1.87 1.55 1.26 1.00 0.85 0.79 0.72 0.63 0.52 0.38 0.28 0.22 0.16 0.12 0.10 0.08 0.06 0.05 0.05 0.04 0.03 0.04 0.05 0.03 0.01 0.00 0.00
0.04 0.06 0.10 0.17 0.31 0.51 0.72 0.92 1.16 1.51 1.83 1.96 2.09 2.04 1.95 1.73 1.40 1.08 0.83 0.64 0.53 0.43 0.35 0.31 0.26 0.21 0.15 0.12 0.10 0.08 0.07 0.06 0.05 0.04 0.04 0.04 0.05 0.04 0.04 0.04 0.02 0.01 0.00
0.05 0.08 0.14 0.22 0.35 0.53 0.73 0.88 1.04 1.26 1.45 1.58 1.69 1.57 1.36 1.13 0.89 0.68 0.52 0.40 0.33 0.28 0.22 0.16 0.12 0.09 0.07 0.06 0.05 0.04 0.04 0.04 0.04 0.03 0.03 0.03 0.02 0.02 0.03 0.03 0.03 0.02 0.01
0.10 0.14 0.20 0.27 0.40 0.51 0.65 0.76 0.81 0.89 0.93 0.93 0.93 0.87 0.76 0.63 0.51 0.41 0.32 0.25 0.19 0.14 0.10 0.07 0.05 0.04 0.04 0.03 0.03 0.02 0.02 0.02 0.02 0.02 0.03 0.02 0.01 0.02 0.04 0.05 0.07 0.06 0.03
0.15 0.20 0.26 0.32 0.38 0.42 0.47 0.47 0.45 0.47 0.45 0.41 0.39 0.37 0.33 0.29 0.25 0.21 0.16 0.11 0.08 0.06 0.04 0.03 0.02 0.02 0.02 0.01 0.01 0.01 0.01 0.02 0.03 0.04 0.04 0.04 0.03 0.04 0.04 0.05 0.08 0.14 0.13
0.18 0.24 0.28 0.29 0.28 0.27 0.26 0.24 0.23 0.22 0.20 0.18 0.16 0.15 0.13 0.11 0.09 0.08 0.07 0.05 0.04 0.02 0.02 0.01 0.01 0.01 0.01 0.01 0.01 0.01 0.01 0.02 0.03 0.04 0.05 0.06 0.05 0.05 0.05 0.06 0.08 0.13 0.19
0.26 0.30 0.30 0.24 0.19 0.17 0.15 0.14 0.14 0.12 0.10 0.09 0.08 0.07 0.06 0.05 0.04 0.03 0.03 0.02 0.02 0.01 0.01 0.01 0.01 0.01 0.01 0.01 0.02 0.02 0.03 0.03 0.04 0.05 0.06 0.07 0.07 0.08 0.07 0.07 0.08 0.09 0.14
0.37 0.37 0.31 0.20 0.14 0.10 0.09 0.09 0.09 0.08 0.08 0.07 0.06 0.05 0.04 0.03 0.02 0.02 0.02 0.01 0.01 0.01 0.01 0.01 0.01 0.01 0.01 0.01 0.02 0.03 0.03 0.05 0.05 0.05 0.05 0.05 0.06 0.08 0.07 0.07 0.07 0.08 0.13
0.56 0.40 0.26 0.15 0.10 0.08 0.09 0.10 0.09 0.08 0.07 0.05 0.04 0.03 0.02 0.02 0.01 0.01 0.01 0.01 0.01 0.01 0.01 0.01 0.01 0.01 0.01 0.02 0.03 0.04 0.04 0.04 0.03 0.03 0.04 0.04 0.05 0.06 0.07 0.08 0.09 0.11 0.14
0.34 0.21 0.15 0.10 0.10 0.12 0.12 0.10 0.08 0.07 0.04 0.03 0.02 0.02 0.02 0.02 0.02 0.01 0.01 0.02 0.01 0.01 0.01 0.01 0.01 0.01 0.02 0.02 0.02 0.02 0.01 0.01 0.01 0.02 0.03 0.04 0.06 0.09 0.12 0.11 0.12 0.15 0.18
0.30 0.22 0.19 0.15 0.13 0.12 0.10 0.07 0.06 0.04 0.03 0.02 0.02 0.03 0.03 0.03 0.03 0.03 0.02 0.02 0.02 0.01 0.01 0.01 0.01 0.01 0.01 0.01 0.00 0.00 0.00 0.01 0.01 0.02 0.03 0.04 0.06 0.11 0.14 0.14 0.16 0.20 0.23
0.42 0.32 0.25 0.21 0.17 0.15 0.12 0.11 0.10 0.09 0.07 0.06 0.06 0.06 0.06 0.06 0.05 0.04 0.03 0.03 0.03 0.02 0.02 0.01 0.01 0.01 0.00 0.00 0.00 0.00 0.00 0.01 0.02 0.03 0.04 0.04 0.04 0.07 0.08 0.10 0.14 0.21 0.26
0.51 0.40 0.34 0.30 0.28 0.26 0.24 0.23 0.21 0.17 0.14 0.12 0.12 0.11 0.10 0.08 0.07 0.04 0.03 0.03 0.02 0.01 0.01 0.01 0.01 0.01 0.01 0.00 0.00 0.00 0.00 0.02 0.05 0.07 0.07 0.05 0.05 0.09 0.11 0.10 0.09 0.10 0.17
0.52 0.46 0.40 0.39 0.40 0.37 0.33 0.29 0.24 0.20 0.18 0.18 0.16 0.12 0.10 0.08 0.05 0.03 0.02 0.01 0.01 0.01 0.01 0.01 0.02 0.03 0.02 0.00 0.00 0.00 0.01 0.03 0.05 0.06 0.07 0.10 0.12 0.11 0.09 0.07 0.07 0.10 0.19
0.41 0.43 0.43 0.44 0.43 0.39 0.32 0.26 0.23 0.21 0.19 0.16 0.11 0.08 0.06 0.04 0.02 0.01 0.01 0.01 0.01 0.02 0.02 0.01 0.02 0.04 0.04 0.01 0.00 0.00 0.01 0.02 0.03 0.03 0.05 0.08 0.11 0.10 0.10 0.10 0.12 0.15 0.22
0.37 0.44 0.44 0.41 0.36 0.30 0.22 0.19 0.17 0.14 0.11 0.07 0.04 0.03 0.02 0.01 0.01 0.01 0.01 0.01 0.01 0.02 0.02 0.02 0.02 0.04 0.06 0.02 0.00 0.01 0.02 0.03 0.02 0.02 0.04 0.07 0.09 0.10 0.10 0.11 0.16 0.23 0.28
0.40 0.39 0.36 0.32 0.26 0.19 0.14 0.12 0.10 0.07 0.05 0.03 0.02 0.03 0.02 0.01 0.01 0.01 0.01 0.02 0.02 0.03 0.04 0.03 0.04 0.05 0.04 0.02 0.00 0.01 0.03 0.05 0.05 0.07 0.10 0.13 0.13 0.14 0.11 0.12 0.21 0.33 0.43
0.37 0.35 0.29 0.22 0.16 0.12 0.11 0.09 0.06 0.04 0.02 0.02 0.03 0.03 0.02 0.01 0.01 0.02 0.03 0.03 0.04 0.05 0.05 0.05 0.05 0.05 0.05 0.03 0.01 0.00 0.01 0.03 0.08 0.14 0.16 0.18 0.19 0.17 0.16 0.20 0.32 0.43 0.60
0.28 0.22 0.15 0.11 0.09 0.08 0.07 0.06 0.04 0.03 0.03 0.04 0.04 0.03 0.02 0.01 0.01 0.02 0.03 0.04 0.04 0.04 0.04 0.05 0.05 0.05 0.05 0.04 0.01 0.01 0.01 0.03 0.08 0.16 0.22 0.24 0.22 0.24 0.31 0.40 0.51 0.60 0.68
0.12 0.10 0.08 0.07 0.06 0.04 0.04 0.04 0.03 0.04 0.06 0.08 0.06 0.05 0.04 0.02 0.02 0.02 0.02 0.03 0.04 0.04 0.05 0.05 0.05 0.06 0.06 0.05 0.04 0.03 0.04 0.06 0.09 0.15 0.26 0.35 0.38 0.40 0.47 0.54 0.61 0.65 0.73
0.07 0.06 0.05 0.04 0.03 0.02 0.02 0.02 0.02 0.04 0.07 0.08 0.07 0.06 0.03 0.02 0.03 0.03 0.01 0.02 0.03 0.01 0.02 0.04 0.04 0.07 0.07 0.05 0.06 0.08 0.09 0.12 0.15 0.17 0.25 0.34 0.39 0.43 0.48 0.49 0.54 0.57 0.56
0.04 0.03 0.02 0.01 0.01 0.01 0.01 0.01 0.01 0.01 0.03 0.06 0.06 0.05 0.02 0.02 0.02 0.04 0.06 0.02 0.00 0.00 0.01 0.02 0.03 0.04 0.06 0.05 0.04 0.06 0.10 0.14 0.18 0.20 0.30 0.42 0.49 0.53 0.54 0.51 0.52 0.53 0.49